FW9676 Weather Reports


Display with metric or nautical units.
time (UTC)temp
F
wind
direction
speed
MPH
gust
MPH
rain 1hr
in
rain 24hr
in
rain mn
in
humidity
%
barometer
mb
20260904195524 80 24 3.0 8.0 0.00 0.00 0.00 59 1013.2
20260904195020 80 110 4.0 8.0 0.00 0.00 0.00 58 1013.3
20260904194538 80 108 2.0 8.0 0.00 0.00 0.00 59 1013.2
20260904194017 80 30 3.0 7.0 0.00 0.00 0.00 60 1013.2
20260904193517 80 215 1.0 8.0 0.00 0.00 0.00 58 1013.2
20260904193036 80 0 3.0 8.0 0.00 0.00 0.00 60 1013.3
20260904192519 80 79 1.0 8.0 0.00 0.00 0.00 61 1013.4
20260904192021 80 132 3.0 10.0 0.00 0.00 0.00 60 1013.4
20260904191539 79 101 4.0 10.0 0.00 0.00 0.00 62 1013.5
20260904191020 79 82 2.0 8.0 0.00 0.00 0.00 61 1013.6
20260904190522 79 66 4.0 9.0 0.00 0.00 0.00 62 1013.7
20260904190037 79 89 3.0 9.0 0.00 0.00 0.00 62 1013.8
20260904185517 79 104 3.0 9.0 0.00 0.00 0.00 63 1013.8
20260904185022 79 152 3.0 10.0 0.00 0.00 0.00 63 1014.0
20260904184537 79 113 4.0 10.0 0.00 0.00 0.00 64 1014.0
20260904184019 79 157 5.0 9.0 0.00 0.00 0.00 65 1013.9
20260904183517 79 236 3.0 9.0 0.00 0.00 0.00 65 1014.0
20260904183034 78 94 2.0 8.0 0.00 0.00 0.00 65 1013.9
20260904182520 78 86 4.0 8.0 0.00 0.00 0.00 65 1013.9
20260904182023 78 178 2.0 7.0 0.00 0.00 0.00 63 1013.9
20260904181538 78 157 2.0 9.0 0.00 0.00 0.00 66 1013.9
20260904181020 78 121 4.0 9.0 0.00 0.00 0.00 67 1014.0
20260904180526 77 0 1.0 7.0 0.00 0.00 0.00 67 1014.0
20260904180049 77 221 2.0 9.0 0.00 0.00 0.00 66 1014.0
20260904175519 77 123 4.0 9.0 0.00 0.00 0.00 67 1014.0
20260904175019 77 110 1.0 6.0 0.00 0.00 0.00 67 1014.1
20260904174542 77 0 0.0 7.0 0.00 0.00 0.00 68 1014.1
20260904174019 76 113 3.0 7.0 0.00 0.00 0.00 68 1014.1
20260904173519 76 159 2.0 6.0 0.00 0.00 0.00 68 1014.0
20260904173041 76 0 1.0 9.0 0.00 0.00 0.00 69 1014.0
20260904172518 75 103 1.0 9.0 0.00 0.00 0.00 71 1014.0
20260904172016 75 119 3.0 9.0 0.00 0.00 0.00 72 1014.0
20260904171607 75 159 1.0 9.0 0.00 0.00 0.00 72 1013.9
20260904171021 74 152 2.0 7.0 0.00 0.00 0.00 72 1013.9
20260904170522 74 128 2.0 8.0 0.00 0.00 0.00 74 1014.0
20260904170039 73 147 3.0 8.0 0.00 0.00 0.00 74 1013.9
20260904165518 73 88 1.0 8.0 0.00 0.00 0.00 73 1013.8
20260904165020 73 76 2.0 8.0 0.00 0.00 0.00 74 1013.7
20260904164537 73 142 3.0 8.0 0.00 0.00 0.00 74 1013.7
20260904164017 72 156 0.0 2.0 0.00 0.00 0.00 79 1013.5
20260904163519 72 76 0.0 2.0 0.00 0.00 0.00 79 1013.5
20260904163037 72 0 0.0 3.0 0.00 0.00 0.00 79 1013.5
20260904162518 72 0 0.0 3.0 0.00 0.00 0.00 79 1013.5
20260904162021 72 0 0.0 2.0 0.00 0.00 0.00 80 1013.5
20260904161552 71 0 0.0 2.0 0.00 0.00 0.00 81 1013.5
20260904161020 71 0 0.0 2.0 0.00 0.00 0.00 82 1013.4
20260904160520 71 0 0.0 2.0 0.00 0.00 0.00 81 1013.4
20260904160039 71 76 0.0 2.0 0.00 0.00 0.00 81 1013.4
20260904155524 71 0 0.0 3.0 0.00 0.00 0.00 82 1013.3
20260904155021 70 0 0.0 3.0 0.00 0.00 0.00 83 1013.3
20260904154542 70 76 0.0 3.0 0.00 0.00 0.00 83 1013.3
20260904154020 70 0 0.0 4.0 0.00 0.00 0.00 83 1013.3
20260904153517 70 127 0.0 4.0 0.00 0.00 0.00 84 1013.4
20260904153051 70 0 0.0 4.0 0.00 0.00 0.00 84 1013.4
20260904152516 70 0 0.0 2.0 0.00 0.00 0.00 85 1013.4
20260904152020 69 0 0.0 2.0 0.00 0.00 0.00 86 1013.3
20260904151539 68 109 0.0 2.0 0.00 0.00 0.00 87 1013.4
20260904151024 68 109 0.0 3.0 0.00 0.00 0.00 87 1013.4
20260904150520 67 0 0.0 3.0 0.00 0.00 0.00 88 1013.3
20260904150035 67 75 1.0 4.0 0.00 0.00 0.00 89 1013.3
20260904145520 67 89 1.0 4.0 0.00 0.00 0.00 89 1013.2
20260904145020 66 113 1.0 3.0 0.00 0.00 0.00 89 1013.2
20260904144537 66 82 1.0 3.0 0.00 0.00 0.00 91 1013.1
20260904144023 65 0 0.0 2.0 0.00 0.00 0.00 92 1013.1
20260904143518 64 0 0.0 1.0 0.00 0.00 0.00 92 1013.0
20260904143039 64 0 0.0 1.0 0.00 0.00 0.00 93 1013.0
20260904142519 63 0 0.0 1.0 0.00 0.00 0.00 94 1013.0
20260904142019 63 0 0.0 0.0 0.00 0.00 0.00 95 1012.9
20260904141536 62 0 0.0 0.0 0.00 0.00 0.00 94 1012.7
20260904141018 62 0 0.0 1.0 0.00 0.00 0.00 93 1012.8
20260904140519 62 0 0.0 1.0 0.00 0.00 0.00 93 1012.7
20260904140040 61 0 0.0 0.0 0.00 0.00 0.00 93 1012.7
20260904135527 61 0 0.0 0.0 0.00 0.00 0.00 93 1012.6
20260904135020 61 0 0.0 0.0 0.00 0.00 0.00 93 1012.6
20260904134548 61 0 0.0 0.0 0.00 0.00 0.00 93 1012.6
20260904134019 61 0 0.0 0.0 0.00 0.00 0.00 93 1012.5
20260904133521 61 0 0.0 0.0 0.00 0.00 0.00 93 1012.5
20260904133055 61 0 0.0 0.0 0.00 0.00 0.00 93 1012.5
20260904132520 61 0 0.0 0.0 0.00 0.00 0.00 93 1012.5
20260904132019 61 0 0.0 0.0 0.00 0.00 0.00 93 1012.6
20260904131535 61 0 0.0 0.0 0.00 0.00 0.00 93 1012.5
20260904131019 61 0 0.0 0.0 0.00 0.00 0.00 93 1012.4
20260904130522 61 0 0.0 0.0 0.00 0.00 0.00 93 1012.4
20260904130038 61 0 0.0 0.0 0.00 0.00 0.00 93 1012.3
20260904125521 60 0 0.0 0.0 0.00 0.00 0.00 92 1012.4
20260904125018 60 0 0.0 0.0 0.00 0.00 0.00 92 1012.2
20260904124535 60 0 0.0 0.0 0.00 0.00 0.00 92 1012.3
20260904124017 60 0 0.0 0.0 0.00 0.00 0.00 92 1012.2
20260904123519 60 0 0.0 0.0 0.00 0.00 0.00 92 1012.3
20260904123036 60 0 0.0 0.0 0.00 0.00 0.00 92 1012.2
20260904122518 61 0 0.0 0.0 0.00 0.00 0.00 92 1012.2
20260904122018 61 0 0.0 0.0 0.00 0.00 0.00 92 1012.1
20260904121535 61 0 0.0 1.0 0.00 0.00 0.00 92 1012.1
20260904121020 61 0 0.0 1.0 0.00 0.00 0.00 92 1012.1
20260904120516 61 0 0.0 1.0 0.00 0.00 0.00 92 1012.1
20260904120051 60 0 0.0 0.0 0.00 0.00 0.00 91 1012.1
20260904115515 61 0 0.0 0.0 0.00 0.00 0.00 91 1012.1
20260904115018 61 0 0.0 0.0 0.00 0.00 0.00 91 1012.1
20260904114538 61 0 0.0 0.0 0.00 0.00 0.00 91 1012.2
20260904114021 61 0 0.0 0.0 0.00 0.00 0.00 91 1012.1
20260904113522 61 0 0.0 0.0 0.00 0.00 0.00 91 1012.2
20260904113038 61 0 0.0 0.0 0.00 0.00 0.00 91 1012.2
20260904112520 61 0 0.0 0.0 0.00 0.00 0.00 91 1012.1
20260904112018 61 0 0.0 0.0 0.00 0.00 0.00 91 1012.1
20260904111535 61 0 0.0 0.0 0.00 0.00 0.00 91 1012.1
20260904111018 61 0 0.0 0.0 0.00 0.00 0.00 91 1012.1
20260904110518 62 0 0.0 0.0 0.00 0.00 0.00 91 1012.1
20260904110037 61 0 0.0 0.0 0.00 0.00 0.00 91 1012.1
20260904105523 61 0 0.0 0.0 0.00 0.00 0.00 90 1012.1
20260904105021 62 0 0.0 0.0 0.00 0.00 0.00 90 1012.1
20260904104601 62 0 0.0 0.0 0.00 0.00 0.00 90 1012.1
20260904104020 62 0 0.0 0.0 0.00 0.00 0.00 90 1012.0
20260904103517 62 0 0.0 0.0 0.00 0.00 0.00 90 1012.1
20260904103037 62 0 0.0 0.0 0.00 0.00 0.00 90 1012.0
20260904102518 62 0 0.0 0.0 0.00 0.00 0.00 90 1012.0
20260904102020 62 0 0.0 0.0 0.00 0.00 0.00 90 1012.0
20260904101543 62 0 0.0 0.0 0.00 0.00 0.00 90 1012.0
20260904101017 62 0 0.0 0.0 0.00 0.00 0.00 89 1012.0
20260904100518 62 0 0.0 0.0 0.00 0.00 0.00 89 1012.1
20260904100035 62 0 0.0 0.0 0.00 0.00 0.00 89 1012.1
20260904095520 63 0 0.0 0.0 0.00 0.00 0.00 89 1012.1
20260904095020 63 0 0.0 0.0 0.00 0.00 0.00 89 1012.0
20260904094550 63 0 0.0 0.0 0.00 0.00 0.00 89 1012.1
20260904094019 63 0 0.0 0.0 0.00 0.00 0.00 89 1012.2
20260904093525 63 0 0.0 0.0 0.00 0.00 0.00 89 1012.2
20260904093037 63 0 0.0 0.0 0.00 0.00 0.00 89 1012.2
20260904092520 63 0 0.0 0.0 0.00 0.00 0.00 89 1012.2
20260904092018 63 0 0.0 0.0 0.00 0.00 0.00 89 1012.3
20260904091538 63 0 0.0 0.0 0.00 0.00 0.00 89 1012.2
20260904091016 63 0 0.0 0.0 0.00 0.00 0.00 89 1012.2
20260904090518 63 0 0.0 0.0 0.00 0.00 0.00 88 1012.3
20260904090037 63 0 0.0 0.0 0.00 0.00 0.00 88 1012.3
20260904085518 63 0 0.0 0.0 0.00 0.00 0.00 88 1012.3
20260904085027 63 0 0.0 0.0 0.00 0.00 0.00 88 1012.2
20260904084538 63 0 0.0 0.0 0.00 0.00 0.00 88 1012.2
20260904084020 63 0 0.0 0.0 0.00 0.00 0.00 88 1012.2
20260904083517 63 0 0.0 0.0 0.00 0.00 0.00 87 1012.3
20260904083036 63 0 0.0 0.0 0.00 0.00 0.00 87 1012.4
20260904082516 63 0 0.0 0.0 0.00 0.00 0.00 87 1012.4
20260904082019 63 0 0.0 0.0 0.00 0.00 0.00 87 1012.4
20260904081539 64 0 0.0 0.0 0.00 0.00 0.00 87 1012.4
20260904081015 64 0 0.0 0.0 0.00 0.00 0.00 87 1012.4
20260904080519 64 0 0.0 0.0 0.00 0.00 0.00 87 1012.4
20260904080040 64 0 0.0 0.0 0.00 0.00 0.00 87 1012.5
20260904075520 64 0 0.0 0.0 0.00 0.00 0.00 87 1012.4
20260904075020 64 0 0.0 0.0 0.00 0.00 0.00 86 1012.5
20260904074534 64 0 0.0 0.0 0.00 0.00 0.00 85 1012.4
20260904074023 64 0 0.0 0.0 0.00 0.00 0.00 85 1012.3
20260904073516 64 0 0.0 0.0 0.00 0.00 0.00 85 1012.4
20260904073037 64 0 0.0 0.0 0.00 0.00 0.00 85 1012.4
20260904072517 64 0 0.0 0.0 0.00 0.00 0.00 85 1012.4
20260904072015 64 0 0.0 1.0 0.00 0.00 0.00 85 1012.4
20260904071536 65 0 0.0 1.0 0.00 0.00 0.00 85 1012.4
20260904071020 65 0 0.0 1.0 0.00 0.00 0.00 85 1012.3
20260904070516 65 0 0.0 1.0 0.00 0.00 0.00 86 1012.4
20260904070041 65 0 0.0 2.0 0.00 0.00 0.00 85 1012.3
20260904065526 65 0 0.0 2.0 0.00 0.00 0.00 85 1012.4
20260904065019 65 0 0.0 1.0 0.00 0.00 0.00 85 1012.3
20260904064537 65 0 0.0 1.0 0.00 0.00 0.00 86 1012.4
20260904064025 65 0 0.0 0.0 0.00 0.00 0.00 85 1012.4
20260904063516 66 0 0.0 1.0 0.00 0.00 0.00 86 1012.3
20260904063040 66 0 0.0 2.0 0.00 0.00 0.00 86 1012.3
20260904062519 66 225 0.0 2.0 0.00 0.00 0.00 86 1012.3
20260904062018 66 0 0.0 0.0 0.00 0.00 0.00 87 1012.2
20260904061535 66 0 0.0 0.0 0.00 0.00 0.00 87 1012.2
20260904061020 67 0 0.0 0.0 0.00 0.00 0.00 87 1012.2
20260904060520 67 0 0.0 0.0 0.00 0.00 0.00 87 1012.2
20260904060107 67 0 0.0 2.0 0.00 0.00 0.00 87 1012.0
20260904055520 67 0 0.0 2.0 0.00 0.00 0.00 87 1012.1
20260904055019 67 225 0.0 2.0 0.00 0.00 0.00 87 1012.1
20260904054537 67 0 0.0 2.0 0.00 0.00 0.00 87 1012.2
20260904054016 67 225 0.0 4.0 0.00 0.00 0.00 87 1012.1
20260904053520 68 225 1.0 4.0 0.00 0.00 0.00 87 1012.2
20260904053117 68 212 0.0 4.0 0.00 0.00 0.00 87 1012.2
20260904052516 68 254 0.0 4.0 0.00 0.00 0.00 87 1012.3
20260904052016 68 259 0.0 4.0 0.00 0.00 0.00 87 1012.3
20260904051549 68 0 2.0 4.0 0.00 0.00 0.00 87 1012.4
20260904051026 68 0 0.0 4.0 0.00 0.00 0.00 87 1012.4
20260904050523 68 252 1.0 4.0 0.00 0.00 0.00 87 1012.4
20260904050037 68 227 1.0 4.0 0.00 0.00 0.00 87 1012.4
20260904045519 68 227 1.0 4.0 0.00 0.00 0.00 86 1012.3
20260904045018 68 0 2.0 5.0 0.00 0.00 0.00 86 1012.3
20260904044554 68 243 1.0 6.0 0.00 0.00 0.00 86 1012.2
20260904044017 68 239 1.0 6.0 0.00 0.00 0.00 86 1012.3
20260904043516 68 253 2.0 5.0 0.00 0.00 0.00 87 1012.2
20260904043035 68 249 1.0 6.0 0.00 0.00 0.00 86 1012.1
20260904042518 68 0 1.0 6.0 0.00 0.00 0.00 87 1012.1
20260904042019 68 244 2.0 6.0 0.00 0.00 0.00 87 1012.1
20260904041539 68 0 1.0 6.0 0.00 0.00 0.00 87 1012.1
20260904041019 68 210 2.0 7.0 0.00 0.00 0.00 87 1012.1
20260904040520 68 261 1.0 7.0 0.00 0.00 0.00 86 1012.0
20260904040047 68 284 2.0 7.0 0.00 0.00 0.00 86 1011.9
20260904035525 68 276 1.0 6.0 0.00 0.00 0.00 86 1012.0
20260904035026 68 269 3.0 6.0 0.00 0.00 0.00 86 1011.9
20260904034537 68 269 2.0 6.0 0.00 0.00 0.00 85 1011.9
20260904034018 68 278 1.0 5.0 0.00 0.00 0.00 85 1011.7
20260904033516 69 234 1.0 7.0 0.00 0.00 0.00 84 1011.8
20260904033049 68 261 2.0 7.0 0.00 0.00 0.00 84 1011.7
20260904032518 69 0 2.0 7.0 0.00 0.00 0.00 84 1011.7
20260904032017 69 260 3.0 7.0 0.00 0.00 0.00 85 1011.7
20260904031538 69 231 2.0 8.0 0.00 0.00 0.00 85 1011.7
20260904031020 69 266 2.0 10.0 0.00 0.00 0.00 85 1011.6
20260904030519 69 219 3.0 10.0 0.00 0.00 0.00 85 1011.7
20260904030036 69 283 2.0 9.0 0.00 0.00 0.00 85 1011.6
20260904025517 69 252 3.0 9.0 0.00 0.00 0.00 85 1011.6
20260904025017 69 240 2.0 9.0 0.00 0.00 0.00 85 1011.5
20260904024536 69 271 3.0 9.0 0.00 0.00 0.00 86 1011.5
20260904024019 69 234 2.0 8.0 0.00 0.00 0.00 86 1011.5
20260904023518 69 230 1.0 5.0 0.00 0.00 0.00 86 1011.6
20260904023050 69 228 2.0 7.0 0.00 0.00 0.00 86 1011.6
20260904022516 69 252 1.0 7.0 0.00 0.00 0.00 85 1011.6
20260904022020 69 217 2.0 8.0 0.00 0.00 0.00 85 1011.6
20260904021536 69 238 1.0 8.0 0.00 0.00 0.00 84 1011.6
20260904021020 70 254 2.0 8.0 0.00 0.00 0.00 84 1011.5
20260904020518 70 198 3.0 8.0 0.00 0.00 0.00 83 1011.5
20260904020040 70 272 1.0 8.0 0.00 0.00 0.00 82 1011.5
20260904015519 70 247 2.0 7.0 0.00 0.00 0.00 81 1011.5
20260904015019 71 221 1.0 7.0 0.00 0.00 0.00 81 1011.5
20260904014536 71 255 2.0 8.0 0.00 0.00 0.00 81 1011.6
20260904014017 70 238 2.0 9.0 0.00 0.00 0.00 81 1011.6
20260904013518 70 219 2.0 9.0 0.00 0.00 0.00 81 1011.7
20260904013035 71 264 5.0 9.0 0.00 0.00 0.00 80 1011.7
20260904012525 71 249 3.0 11.0 0.00 0.00 0.00 80 1011.6
20260904012018 71 218 3.0 11.0 0.00 0.00 0.00 80 1011.6
20260904011536 71 246 4.0 12.0 0.00 0.00 0.00 80 1011.7
20260904011018 71 225 5.0 12.0 0.00 0.00 0.00 79 1011.6
20260904010525 71 233 5.0 11.0 0.00 0.00 0.00 79 1011.6
20260904010035 72 228 5.0 12.0 0.00 0.00 0.00 78 1011.6
20260904005518 72 224 5.0 12.0 0.00 0.00 0.00 78 1011.6
20260904005019 72 221 5.0 14.0 0.00 0.00 0.00 77 1011.6
20260904004539 73 282 5.0 14.0 0.00 0.00 0.00 77 1011.6
20260904004018 73 242 7.0 14.0 0.00 0.00 0.00 77 1011.7
20260904003521 73 214 5.0 13.0 0.00 0.00 0.00 77 1011.7
20260904003038 73 227 6.0 12.0 0.00 0.00 0.00 76 1011.7
20260904002519 73 239 6.0 13.0 0.00 0.00 0.00 76 1011.6
20260904002021 73 206 5.0 13.0 0.00 0.00 0.00 77 1011.6
20260904001537 73 265 6.0 13.0 0.00 0.00 0.00 77 1011.7
20260904001017 73 222 6.0 13.0 0.00 0.00 0.00 76 1011.8
20260904000518 73 263 6.0 13.0 0.00 0.00 0.00 77 1011.7
20260904000048 74 271 7.0 13.0 0.00 0.00 0.00 76 1011.7
20260903235520 74 227 6.0 13.0 0.00 0.00 0.00 76 1011.8
20260903235019 74 258 5.0 16.0 0.00 0.00 0.00 77 1011.8
20260903234536 74 188 6.0 16.0 0.00 0.00 0.00 77 1011.9
20260903234019 74 325 6.0 16.0 0.00 0.00 0.00 77 1011.9
20260903233515 74 235 6.0 16.0 0.00 0.00 0.00 76 1012.0
20260903233048 74 272 6.0 15.0 0.00 0.00 0.00 75 1012.0
20260903232518 75 263 5.0 13.0 0.00 0.00 0.00 75 1012.0
20260903232018 75 250 6.0 15.0 0.00 0.00 0.00 75 1012.0
20260903231534 75 261 5.0 15.0 0.00 0.00 0.00 75 1012.1
20260903231017 75 236 7.0 15.0 0.00 0.00 0.00 75 1012.1
20260903230518 75 179 4.0 14.0 0.00 0.00 0.00 75 1012.2
20260903230046 74 276 7.0 14.0 0.00 0.00 0.00 75 1012.2
20260903225518 74 274 7.0 14.0 0.00 0.00 0.00 75 1012.2
20260903225018 74 263 6.0 14.0 0.00 0.00 0.00 75 1012.2
20260903224542 75 227 6.0 15.0 0.00 0.00 0.00 74 1012.2
20260903224022 75 259 6.0 15.0 0.00 0.00 0.00 74 1012.4
20260903223521 75 224 7.0 13.0 0.00 0.00 0.00 73 1012.5
20260903223058 76 230 5.0 16.0 0.00 0.00 0.00 74 1012.5
20260903222518 75 248 5.0 16.0 0.00 0.00 0.00 75 1012.5
20260903222022 75 270 6.0 16.0 0.00 0.00 0.00 75 1012.5
20260903221535 75 261 8.0 17.0 0.00 0.00 0.00 75 1012.6
20260903221017 74 257 7.0 17.0 0.00 0.00 0.00 76 1012.6
20260903220517 75 230 9.0 16.0 0.00 0.00 0.00 76 1012.6
20260903220038 75 240 7.0 15.0 0.00 0.00 0.00 76 1012.5
20260903215518 75 266 8.0 16.0 0.00 0.00 0.00 76 1012.7
20260903215017 75 286 8.0 16.0 0.00 0.00 0.00 76 1012.7
20260903214546 75 257 8.0 16.0 0.00 0.00 0.00 75 1012.7
20260903214018 75 256 7.0 15.0 0.00 0.00 0.00 75 1012.7
20260903213516 76 267 8.0 15.0 0.00 0.00 0.00 75 1012.6
20260903213048 76 243 8.0 15.0 0.00 0.00 0.00 75 1012.7
20260903212519 76 228 7.0 15.0 0.00 0.00 0.00 75 1012.7
20260903212017 77 237 8.0 15.0 0.00 0.00 0.00 73 1012.7
20260903211541 77 235 7.0 17.0 0.00 0.00 0.00 73 1012.7
20260903211018 77 236 8.0 17.0 0.00 0.00 0.00 73 1012.7
20260903210518 78 279 6.0 14.0 0.00 0.00 0.00 73 1012.7
20260903210047 78 299 6.0 14.0 0.00 0.00 0.00 73 1012.8
20260903205519 78 279 8.0 14.0 0.00 0.00 0.00 72 1012.8
20260903205019 78 238 5.0 12.0 0.00 0.00 0.00 72 1012.8
20260903204544 79 248 6.0 14.0 0.00 0.00 0.00 70 1012.9
20260903204019 79 272 4.0 16.0 0.00 0.00 0.00 71 1012.9
20260903203518 79 284 6.0 16.0 0.00 0.00 0.00 70 1012.9
20260903203037 80 228 5.0 13.0 0.00 0.00 0.00 69 1013.0
20260903202523 79 266 3.0 13.0 0.00 0.00 0.00 69 1013.0
20260903202021 79 257 4.0 13.0 0.00 0.00 0.00 69 1013.0
20260903201533 79 225 6.0 13.0 0.00 0.00 0.00 69 1013.0
20260903201019 79 245 5.0 12.0 0.00 0.00 0.00 69 1013.1
20260903200518 79 261 2.0 8.0 0.00 0.00 0.00 70 1013.1
20260903200034 79 264 4.0 11.0 0.00 0.00 0.00 70 1013.2